Regional Weather Roundup
Issued by NWS Grand Forks, ND

Home | Current Version | Previous Version | Text Only | Print | Product List | Glossary On
Versions: 1 2 3 4 5 6 7 8 9 10 11 12 13 14 15 16 17 18 19 20 21 22 23 24 25 26 27 28 29 30 31 32 33 34 35 36 37 38 39 40 41 42 43 44 45 46 47 48 49 50
000
ASUS43 KFGF 040531
RWRFGF
PRAIRIE TO PINES  WEATHER ROUNDUP
NATIONAL WEATHER SERVICE EASTERN NORTH DAKOTA/GRAND FORKS ND
1200 AM CDT SAT JUL 04 2015

 **SATELLITE DATA USED TO AUGMENT SKY COVER AT AUTOMATED STATIONS**
 *****  WEATHER ACROSS EASTERN NORTH DAKOTA  *****

CITY           SKY/WX    TMP DP  RH WIND       PRES   REMARKS
GRAND FORKS    CLOUDY    62  59  90 CALM      29.89S FOG
GRAND FRKS AFB CLEAR     62  61  95 S3        29.90S
GRAND FRKS NWS   N/A     63 N/A N/A E3          N/A
DEVILS LAKE    CLEAR     70  61  73 SE8       29.90R
FARGO          CLEAR     65  60  84 SE5       29.90S HAZE
WAHPETON ARPT  CLEAR     64  61  88 CALM      29.92S
$$

 ***** WEATHER ACROSS CENTRAL AND WESTERN NORTH DAKOTA  *****

CITY           SKY/WX    TMP DP  RH WIND       PRES   REMARKS
BISMARCK       CLOUDY    68  63  84 CALM      29.91S HAZE
MINOT          CLEAR     67  63  87 SE3       29.87S FOG
JAMESTOWN      CLOUDY    69  63  81 S5        29.91S HAZE
MINOT AFB      CLEAR     66  66 100 SE5       29.86S
GARRISON         N/A     68  65  90 S6        29.89R
WILLISTON      PTCLDY    76  64  66 S8        29.85S
DICKINSON      CLEAR     67  62  84 SE9       29.90S HAZE
HETTINGER      CLEAR     68  61  78 SE8       29.93F HAZE
$$

 *****  OTHER AIRPORT OBSERVATIONS IN OUR AREA  *****

CITY           SKY/WX    TMP DP  RH WIND       PRES   REMARKS
WALHALLA       FAIR      63  63 100 MISG      29.90R FOG
GRAFTON AIRPOR FAIR      61  61 100 SE3       29.90S FOG
VALLEY CITY AR FAIR      66  66 100 S3        29.92S FOG
CANDO          FAIR      61  59  94 SE6       29.91S
CAVALIER APRT  FAIR      61  59  94 CALM      29.90R FOG
GWINNER          N/A     68  68 100 SE5       29.93S
SHEYENNE NWR     N/A     65  63  93 E2        29.95S
ROLLA          CLOUDY    63  57  82 S8        29.92S
 ***** THE ABOVE OBSERVATIONS ARE NON NWS ARE NOT QUALITY
       CONTROLLED AND MAY MIS-REPORT RAIN FOR SNOW...
$$

  *****  WEATHER ACROSS NORTHERN MINNESOTA  *****

CITY           SKY/WX    TMP DP  RH WIND       PRES   REMARKS
FLAG ISLAND    CLEAR     70  57  64 CALM      29.89S
WARROAD        CLEAR     64  59  82 CALM      29.92S
ROSEAU         CLEAR     63  57  82 S3        29.91S
HALLOCK        CLEAR     61  59  94 SE5       29.89S FOG
THF RVR FALLS  CLEAR     63  59  88 CALM      29.92S
BAUDETTE       CLEAR     60  56  86 CALM      29.91S
WASKISH        CLEAR     57  55  94 CALM      29.93S FOG
CROOKSTON      CLEAR     63  57  82 CALM      29.92R FOG
$$
  *****  WEATHER ACROSS CENTRAL AND WEST MINNESOTA  *****

CITY           SKY/WX    TMP DP  RH WIND       PRES   REMARKS
FOSSTON        CLEAR     57  50  77 CALM      29.94S HAZE
BEMIDJI        CLEAR     59  57  93 CALM      29.94S
PARK RAPIDS    CLOUDY    61  58  90 CALM      29.94S FOG
ELBOW LAKE     FAIR      69  66  92 CALM      29.93R FOG
WADENA         CLEAR     61  59  94 CALM      29.94S FOG
DETROIT LAKES  CLEAR     64  61  88 CALM      29.95S FOG
MOORHEAD       CLEAR     64  61  88 SE3       29.92S FOG
FERGUS FALLS   CLEAR     66  64  94 E3        29.92S FOG
MORRIS MN      CLEAR     66  64  94 CALM      29.92S FOG
STAPLES        CLEAR     63  61  94 CALM      29.94S FOG
$$
  *****  WEATHER ELSEWHERE ACROSS MINNESOTA  *****

CITY           SKY/WX    TMP DP  RH WIND       PRES   REMARKS
DULUTH         CLEAR     63  55  75 N5        29.93R
INTRNTL FALLS  CLEAR     54  52  93 CALM      29.93R
ELY            CLEAR     55  52  88 CALM      29.95S
CLOQUET        CLEAR     59  55  88 N8        29.93R
WHEATON        CLEAR     61  59  94 CALM      29.94S FOG
BRAINERD       FAIR      59  59 100 CALM      29.94R FOG
HIBBING        CLEAR     55  53  93 CALM      29.94R
ALEXANDRIA     CLOUDY    65  63  93 CALM      29.96R FOG
SAINT CLOUD    FOG       63  62  97 CALM      29.92S VSB 3/4
MINNEAPOLIS    MOCLDY    71  59  65 SW3       29.92R
$$

  *****  WEATHER ACROSS SOUTH DAKOTA  *****

CITY           SKY/WX    TMP DP  RH WIND       PRES   REMARKS
SIOUX FALLS    MOCLDY    69  62  78 SW3       29.96S
BROOKINGS      CLEAR     66  63  88 S5        29.97S
WATERTOWN      MOCLDY    71  64  78 CALM      29.95S HAZE
HURON          CLEAR     71  65  81 S7        29.93R
SISSETON         N/A     66  64  93 CALM      29.92R
ABERDEEN       CLOUDY    67  64  90 S6        29.92S FOG
MITCHELL       CLEAR     72  64  76 S9        29.94S
PIERRE         CLEAR     67  64  90 SE5       29.92S FOG
MOBRIDGE       CLEAR     70  68  93 SE7       29.90S FOG
RAPID CITY     PTCLDY    64  60  87 S3        29.97S
$$

  *****  SOME WEATHER IN NEARBY STATES *****

CITY           SKY/WX    TMP DP  RH WIND       PRES   REMARKS
GLASGOW MT     PTCLDY    71  57  61 E12       29.79F
GREAT FALLS MT PTCLDY    74  46  36 N13       29.83R
CHEYENNE WY    CLOUDY    67  54  63 CALM      30.17R
SCOTTSBLUFF NE CLOUDY    72  57  59 SE9       30.03S
OMAHA NE       PTCLDY    65  59  81 CALM      29.99S
DES MOINES IA  PTCLDY    68  58  70 S3        29.98R
DAVENPORT IA   CLEAR     61  57  87 CALM      29.97R
CHICAGO IL     PTCLDY    64  54  69 CALM      29.95R
EAU CLAIRE WI  MOCLDY    66  58  75 SW5       29.91S
LA CROSSE WI   CLEAR     64  61  90 SE5       29.93R
$$

  *****  SOME NATIONAL WEATHER *****

CITY           SKY/WX    TMP DP  RH WIND       PRES   REMARKS
LA GUARDIA NY  MOCLDY    71  59  65 S8        29.98R
RALEIGH NC     CLOUDY    72  70  93 W8        29.92R
ATLANTA GA     CLOUDY    74  68  81 SW7       30.03F
NEW ORLEANS LA MOCLDY    80  73  79 S6        30.03S
OKLAHOMA CITY  PTCLDY    77  70  79 NE5       29.94S
ALBUQUERQUE NM PTCLDY    75  55  49 S7        30.14R
SALT LAKE CITY MOCLDY    85  50  29 S7        29.91R
LOS ANGELES CA CLOUDY    63  60  90 SW7       29.89R
BOISE ID       MOCLDY    88  44  21 CALM      29.82R
SEATTLE WA     CLEAR     78  54  43 NW5       29.87R
$$

*** WEATHER ACROSS MANITOBA...SASKATCHEWAN AND ONTARIO ***
                ***ONTARIO***

CITY           SKY/WX    TMP DP  RH WIND       PRES   REMARKS
GERALDTON      PTCLDY    55  52  88 W2        29.90R
THUNDER BAY    CLEAR     55  55 100 SW3       29.92R
SIOUX LOOKOUT  PTCLDY    52  52 100 CALM      29.93R
TORONTO        MOCLDY    63  45  51 CALM      29.93
BIG TROUT LK   CLEAR     57  46  67 E3        29.91R
PICKLE LAKE    NOT AVBL
DRYDEN         CLEAR     64  55  72 S5        29.93R
KENORA         PTCLDY    68  55  64 SW6       29.92
$$
                *** MANITOBA***

CITY           SKY/WX    TMP DP  RH WIND       PRES   REMARKS
BRANDON        CLEAR     64  61  88 SE6       29.87S SMOKE
DAUPHIN        CLEAR     72  59  64 S14       29.80F HAZE
ISLAND LAKE    CLOUDY    68  52  56 SE13G21   29.83F
PILOT MOUND      N/A     61  57  88 SE8         N/A
THE PAS        TSTM      72  59  64 SW14G21   29.70R SMOKE
THOMPSON       TSTM      63  57  82 S7G20     29.64F FOG
WINNIPEG       CLEAR     66  61  82 S7        29.88S SMOKE
LYNN LAKE      CLOUDY    64  61  88 S13G21    29.56F FOG
CHURCHILL      LGT RAIN  43  41  93 SE21      29.87F
GILLAM         LGT RAIN  66  48  52 S10G18    29.73F
$$
                ***SASKATCHEWAN***

CITY           SKY/WX    TMP DP  RH WIND       PRES   REMARKS
ESTEVAN        CLOUDY    68  64  88 SE7       29.84F SMOKE
KINDERSLEY     MOCLDY    64  61  88 E12       29.74F
LLOYDMINSTER   MOCLDY    66  57  72 NW9       29.79R
PRINCE ALBERT  MOCLDY    70  57  64 NE3       29.69F
REGINA         PTCLDY    70  64  83 SE9       29.77F SMOKE
YORKTON        CLOUDY    70  63  78 S7        29.78F HAZE
N. BATTLEFORD  MOCLDY    59  55  88 S5        29.74S
LA RONGE       SMOKE     73  54  49 NW14      29.65R VSB 1
SASKATOON      LGT RAIN  68  57  68 E12       29.74F
SWIFT CURRENT  MOCLDY    73  52  46 S15       29.73F
$$
NOTE: THESE ARE AUTOMATED STATIONS WITH LIMITED QUALITY CONTROL
      "FAIR" INDICATES FEW OR NO CLOUDS BELOW 12,000 FEET WITH NO
      SIGNIFICANT WEATHER AND/OR OBSTRUCTIONS TO VISIBILITY.
      SKY/WX - SKY CONDITION AND SIGNIFICANT WEATHER.
      TMP - AIR TEMPERATURE.    DP   - DEWPOINT TEMPERATURE.
      RH  - RELATIVE HUMIDITY.  PRES - PRESSURE.
      HX  - HEAT INDEX.         WCI  - WIND CHILL INDEX.
$



USA.gov is the U.S. government's official web portal to all federal, state and local government web resources and services.